User: anonymous   Login
Location: Camp at the Woods
(43.2055°N, 93.0905°W)
Time: 18:13:39
(UTC+00:00)
Language:

CORIOLIS - Orbit

View from above orbital plane
View from above orbital plane
View from above satellite
View from above satellite

Ground track
Ground track

The orbit data is extracted from the following two-line orbital elements,

1 27640U 03001A   24106.98522459  .00000325  00000-0  17528-3 0  9996
2 27640  98.7155 115.1970 0013580 338.5821  21.4785 14.19434326101777
Epoch (UTC): 15 April 2024 23:38:43
Eccentricity: 0.0013580
inclination: 98.7155°
perigee height: 817 km
apogee height: 837 km
right ascension of ascending node: 115.1970°
argument of perigee: 338.5821°
revolutions per day: 14.19434326
mean anomaly at epoch: 21.4785°
orbit number at epoch: 10177

The dashed part of the orbit path shows where the satellite is in the earth's shadow,  

DLR